EUTELSAT W75 1 24931U 97049A 21062.03799345 -.00000219 00000-0 00000+0 0 9991 2 24931 8.3432 45.4503 0029588 352.2025 206.6514 1.02481989 86913 METEOSAT-7 1 24932U 97049B 21061.97829660 -.00000039 00000-0 00000+0 0 9998 2 24932 11.9921 27.3336 0014739 2.0078 171.2622 0.98308249 85748 METEOSAT-7 AKM 1 25353U 97049E 21060.53465453 .00000118 00000-0 00000+0 0 9990 2 25353 13.8445 13.9867 0077702 290.0921 69.0963 1.00642699 92635